COSMOS 2251 DEB, 40793

Orbit data source: Space-Track

COSMOS 2251 DEB, 40793 is space debris in LEO originally from a launch on Wed, 16 Jun 1993 UTC launched from the Plesetsk Missile And Space Complex (PKMTR). The debris from Iridium 33, an American commercial communications satellite, has been tracked extensively since its accidental collision with the defunct Russian satellite Cosmos 2251 in 2009. This event, occurring at high speed in low Earth orbit (LEO), generated thousands of pieces of space debris, significantly increasing the risk of further collisions. The Iridium 33 debris cloud has impacted space traffic management and orbital debris mitigation strategies, making it a subject of ongoing study in space situational awareness.

Loading next visibility...
COSMOS 2251 DEB details
Identifier
40793, 1993-036BVW
Orbit
LEO
Last TLE update20 hours ago
Origin
Flag of CISKVR (CIS)
ManufacturerUnknown
MissionSpacecraft
Bus & MotorUnknown
MassUnknown
Launch date (UTC)
1993-06-16 (31 years ago)
Launch vehicleUnknown
Launch site
Plesetsk Missile And Space Complex (PKMTR)
Object type
Payload
Rocket body
Debris
Shape & HBRUnknown
Radar Cross SectionSmall (<0.1 m²)

Expand to show TLE details & history

TLE from 20 hours ago
0 COSMOS 2251 DEB
1 40793U 93036BVW 24339.61637543  .00002231  00000-0  11483-2 0  9997
2 40793  73.9773  98.9546 0220989 335.8180  23.2701 14.04002513630059
Epoch: 2024-12-04T14:47Z
Definitive object data (Epoch: 2024-12-04T14:47:34.837Z)
Latitude0.00003°
Longitude163.15048°
Altitude735.738 km
Speed7.563 km/s
True Right ascension06h 35m 49s
True Declination0° 00' 00"
Sunlit
Object was in full shadow at TLE epoch
Visualization TLE readout
Latitude-24.67022°
Longitude-10.75233°
Altitude986.913 km
Speed7.307 km/s
Apparent Right ascension19h 39m 44s
Apparent Declination-32° 06' 45"
Sunlit
Object is in daylight
Visualization observer readout
Local Sidereal Time08:34:02
Azimuth58.752° ENE
Elevation-76.556°
Doppler factor1
Orbital elements
Apogee altitude1,037.975 km
Perigee altitude717.286 km
Semi-major axis7,255.768 km
Eccentricity0.0220989
Inclination73.9773°
RAAN98.9546°
Arg. of periapsis335.818°
True anomaly24.29651°
Mean anomaly23.2701°
Eccentric anomaly23.78067°
Mean motion3.51171 °/min
BSTAR0.0011483
Orbital period102.51 mins
Loading maneuver chart data...

COSMOS 2251 DEB Visibility forecast

Observer location: undefined°, undefined

Span
Click to sort rows by Start time (UTC) header in descending order
Start Az.
Max El. time (UTC)
Max El. Az.
Max El.
End time (UTC)
End Az.
12 mins2024-12-05 18:41:37.210Z353.668° N2024-12-05 18:47:37.210Z62.002° ENE34.68°2024-12-05 18:53:37.210Z134.274° SE
10 mins2024-12-05 20:27:37.210Z314.749° NW2024-12-05 20:31:37.210Z269.106° W27.775°2024-12-05 20:37:37.210Z202.411° SSW
5 mins2024-12-06 07:58:37.210Z123.954° SE2024-12-06 08:00:37.210Z97.569° ESE17.686°2024-12-06 08:03:37.210Z60.127° ENE
9 mins2024-12-06 09:40:37.210Z220.862° SW2024-12-06 09:44:37.210Z288.672° WNW38.216°2024-12-06 09:49:37.210Z7.839° NNE
|